TimeCDT,TemperatureF,Dew PointF,Humidity,Sea Level PressureIn,VisibilityMPH,Wind Direction,Wind SpeedMPH,Gust SpeedMPH,PrecipitationIn,Events,Conditions,WindDirDegrees,DateUTC
12:53 AM,80.1,73.0,79,29.93,10.0,East,3.5,-,N/A,,Mostly Cloudy,90,2013-09-15 05:53:00
1:53 AM,80.1,73.9,81,29.92,9.0,Calm,Calm,-,N/A,,Mostly Cloudy,0,2013-09-15 06:53:00
2:53 AM,79.0,73.9,84,29.92,9.0,Calm,Calm,-,N/A,,Mostly Cloudy,0,2013-09-15 07:53:00
3:53 AM,78.1,73.9,87,29.92,9.0,NE,4.6,-,N/A,,Mostly Cloudy,50,2013-09-15 08:53:00
4:53 AM,75.9,73.0,91,29.92,8.0,NE,6.9,-,N/A,,Mostly Cloudy,50,2013-09-15 09:53:00
5:53 AM,75.9,73.0,91,29.94,7.0,NE,4.6,-,N/A,,Mostly Cloudy,50,2013-09-15 10:53:00
6:53 AM,75.9,73.0,91,29.95,7.0,ENE,4.6,-,N/A,,Mostly Cloudy,70,2013-09-15 11:53:00
7:53 AM,78.1,73.9,87,29.96,5.0,ENE,5.8,-,N/A,,Mostly Cloudy,60,2013-09-15 12:53:00
8:53 AM,82.0,75.0,79,29.97,7.0,ENE,10.4,-,N/A,,Mostly Cloudy,60,2013-09-15 13:53:00
9:53 AM,84.9,75.9,74,29.99,10.0,ENE,9.2,-,N/A,,Mostly Cloudy,70,2013-09-15 14:53:00
10:53 AM,89.1,73.0,59,30.00,10.0,ESE,12.7,-,N/A,,Mostly Cloudy,110,2013-09-15 15:53:00
11:53 AM,89.1,71.1,55,30.01,10.0,East,10.4,18.4,N/A,,Mostly Cloudy,100,2013-09-15 16:53:00
12:53 PM,88.0,73.0,61,30.00,10.0,ESE,12.7,21.9,N/A,,Mostly Cloudy,110,2013-09-15 17:53:00
1:53 PM,91.0,72.0,53,29.98,10.0,East,10.4,19.6,N/A,,Mostly Cloudy,90,2013-09-15 18:53:00
2:53 PM,91.0,70.0,50,29.96,10.0,ESE,13.8,-,N/A,,Mostly Cloudy,120,2013-09-15 19:53:00
3:53 PM,90.0,72.0,55,29.95,10.0,East,10.4,-,N/A,,Mostly Cloudy,100,2013-09-15 20:53:00
4:53 PM,90.0,70.0,52,29.95,10.0,East,11.5,-,N/A,,Mostly Cloudy,100,2013-09-15 21:53:00
5:53 PM,88.0,70.0,55,29.96,10.0,ESE,15.0,-,N/A,,Mostly Cloudy,120,2013-09-15 22:53:00
6:53 PM,86.0,71.1,61,29.97,10.0,ESE,8.1,-,N/A,,Mostly Cloudy,110,2013-09-15 23:53:00
7:53 PM,84.0,73.0,69,29.97,10.0,ESE,8.1,-,N/A,,Mostly Cloudy,120,2013-09-16 00:53:00
8:53 PM,82.9,75.0,77,29.99,10.0,East,6.9,-,N/A,,Mostly Cloudy,100,2013-09-16 01:53:00
9:53 PM,82.0,75.0,79,29.99,10.0,East,5.8,-,N/A,,Scattered Clouds,80,2013-09-16 02:53:00
10:53 PM,82.0,73.9,76,30.00,10.0,ESE,6.9,-,N/A,,Mostly Cloudy,110,2013-09-16 03:53:00
11:53 PM,81.0,73.0,77,30.01,10.0,ESE,3.5,-,N/A,,Mostly Cloudy,120,2013-09-16 04:53:00